7L2IWN-13 Weather Reports


Display with metric or nautical units.
time (UTC)temp
F
wind
direction
speed
MPH
gust
MPH
rain 1hr
in
rain 24hr
in
rain mn
in
humidity
%
barometer
mb
20260905202414 65 273 2.0 2.0 0.00 0.00 0.00 99 1015.5
20260905201215 65 205 1.0 2.0 0.00 0.00 0.00 99 1015.2
20260905200014 65 219 2.0 2.0 0.00 0.00 0.00 99 1015.4
20260905194812 65 242 2.0 2.0 0.00 0.00 0.00 99 1015.5
20260905193613 65 228 2.0 2.0 0.00 0.00 0.00 99 1015.5
20260905192414 65 223 0.0 2.0 0.00 0.00 0.00 99 1015.7
20260905191213 65 223 0.0 0.0 0.00 0.00 0.00 99 1015.5
20260905190013 65 225 1.0 2.0 0.00 0.00 0.00 99 1015.4
20260905184815 65 191 1.0 2.0 0.00 0.00 0.00 99 1015.5
20260905183614 65 201 2.0 3.0 0.00 0.00 0.00 99 1015.7
20260905182412 65 224 0.0 1.0 0.00 0.00 0.00 99 1015.6
20260905181212 65 231 2.0 2.0 0.00 0.00 0.00 99 1015.5
20260905180013 65 224 2.0 3.0 0.00 0.00 0.00 99 1015.7
20260905174813 65 223 1.0 2.0 0.00 0.00 0.00 99 1015.7
20260905173612 65 213 3.0 3.0 0.00 0.00 0.00 99 1015.7
20260905172414 65 267 2.0 2.0 0.00 0.00 0.00 99 1015.7
20260905171214 65 220 1.0 2.0 0.00 0.00 0.00 99 1015.7
20260905170012 65 212 2.0 2.0 0.00 0.00 0.00 99 1015.6
20260905164812 65 232 2.0 3.0 0.00 0.00 0.00 99 1015.5
20260905163614 65 208 1.0 2.0 0.00 0.00 0.00 99 1015.7
20260905162413 65 197 2.0 3.0 0.00 0.00 0.00 99 1015.6
20260905161212 65 244 3.0 4.0 0.00 0.00 0.00 99 1015.2
20260905160012 65 223 3.0 4.0 0.00 0.00 0.00 99 1015.7
20260905154814 65 191 2.0 3.0 0.00 0.00 0.00 99 1015.4
20260905153614 65 287 4.0 4.0 0.00 0.00 0.00 98 1015.5
20260905152414 66 270 1.0 2.0 0.00 0.00 0.00 98 1015.4
20260905145928 66 244 2.0 2.0 0.00 0.20 0.20 97 1015.5
20260905123919 69 256 1.0 3.0 0.00 0.00 0.20 99 1014.9
20260905122719 68 122 4.0 13.0 0.00 0.00 0.20 98 1014.8
20260905122402 68 50 3.0 6.0 0.00 0.33 0.20 99 1014.8
20260905121203 68 259 0.0 1.0 0.00 0.33 0.20 99 1014.9
20260905120003 68 269 1.0 2.0 0.00 0.33 0.20 99 1014.9
20260905114802 68 244 0.0 0.0 0.00 0.34 0.20 99 1014.8
20260905113604 67 271 1.0 1.0 0.00 0.35 0.20 99 1014.6
20260905112402 67 278 2.0 3.0 0.00 0.35 0.20 99 1014.6
20260905111202 68 267 2.0 3.0 0.00 0.36 0.20 99 1014.4
20260905110002 67 262 2.0 2.0 0.00 0.36 0.20 99 1014.4
20260905104801 68 272 2.0 2.0 0.00 0.36 0.20 99 1014.3
20260905103602 68 220 0.0 0.0 0.00 0.37 0.20 99 1014.1
20260905102403 68 230 2.0 2.0 0.00 0.38 0.20 99 1014.2
20260905101202 68 312 2.0 3.0 0.00 0.38 0.20 99 1014.0
20260905100003 68 245 0.0 0.0 0.00 0.38 0.20 99 1013.6
20260905094802 69 211 1.0 1.0 0.00 0.38 0.20 99 1013.4
20260905093601 69 242 1.0 2.0 0.00 0.38 0.20 99 1013.3
20260905092401 69 257 1.0 2.0 0.00 0.38 0.20 99 1013.3
20260905091201 70 152 2.0 3.0 0.00 0.38 0.20 99 1013.3
20260905090003 71 225 1.0 1.0 0.00 0.38 0.20 99 1013.0
20260905084802 71 108 0.0 0.0 0.00 0.38 0.20 98 1013.0
20260905083602 71 110 0.0 0.0 0.00 0.38 0.20 99 1012.9
20260905082402 72 286 0.0 0.0 0.00 0.38 0.20 97 1012.6
20260905081201 71 146 0.0 2.0 0.00 0.38 0.20 98 1012.6
20260905080002 71 172 2.0 3.0 0.00 0.38 0.20 98 1012.6
20260905074803 72 165 1.0 2.0 0.00 0.38 0.20 96 1012.5
20260905073603 74 117 0.0 1.0 0.00 0.38 0.20 92 1012.4
20260905072402 75 58 0.0 0.0 0.00 0.38 0.20 91 1012.3
20260905071201 74 58 0.0 0.0 0.00 0.38 0.20 92 1012.3
20260905070002 74 91 0.0 1.0 0.00 0.38 0.20 92 1012.1
20260905064802 74 27 1.0 2.0 0.00 0.38 0.20 88 1012.2
20260905063603 74 3 0.0 1.0 0.00 0.38 0.20 88 1012.1
20260905062403 74 359 0.0 1.0 0.00 0.38 0.20 89 1012.1
20260905061202 74 308 3.0 5.0 0.00 0.38 0.20 89 1012.4
20260905060002 76 103 1.0 3.0 0.00 0.38 0.20 87 1012.2
20260905054802 74 285 0.0 1.0 0.00 0.38 0.20 90 1012.3
20260905053604 73 330 1.0 2.0 0.00 0.38 0.20 92 1012.2
20260905052403 72 327 2.0 3.0 0.00 0.38 0.20 93 1012.2
20260905051203 73 6 0.0 1.0 0.00 0.38 0.20 93 1012.2
20260905050002 72 303 3.0 5.0 0.00 0.38 0.20 93 1012.1
20260905044802 73 300 2.0 3.0 0.00 0.38 0.20 93 1012.1
20260905043602 71 308 0.0 2.0 0.00 0.38 0.20 95 1012.0
20260905042403 70 302 1.0 2.0 0.00 0.38 0.20 96 1012.0
20260905041202 70 302 0.0 1.0 0.00 0.38 0.20 98 1012.1
20260905040002 71 44 1.0 2.0 0.00 0.38 0.20 95 1012.3
20260905034802 70 103 2.0 3.0 0.00 0.38 0.20 96 1012.2
20260905033603 72 93 2.0 3.0 0.00 0.38 0.20 95 1012.3
20260905032403 70 53 3.0 5.0 0.00 0.38 0.20 95 1012.2
20260905031202 70 21 3.0 6.0 0.01 0.38 0.20 97 1012.2
20260905030003 69 20 5.0 8.0 0.01 0.38 0.20 98 1012.5
20260905024802 70 322 2.0 3.0 0.01 0.38 0.20 98 1012.3
20260905023603 70 56 0.0 0.0 0.01 0.38 0.20 99 1012.7
20260905022403 70 21 0.0 1.0 0.01 0.38 0.20 97 1013.0
20260905021201 66 86 2.0 2.0 0.00 0.38 0.19 99 1012.8
20260905020001 66 86 2.0 2.0 0.00 0.38 0.19 99 1012.9
20260905014802 66 86 2.0 2.0 0.00 0.38 0.19 99 1012.9
20260905013602 66 86 2.0 2.0 0.00 0.38 0.19 99 1013.0
20260905012403 66 86 2.0 2.0 0.00 0.38 0.19 99 1013.1
20260905011203 66 86 2.0 2.0 0.00 0.38 0.19 99 1013.2
20260905010001 66 86 2.0 2.0 0.00 0.38 0.19 99 1013.4
20260905004802 66 86 2.0 2.0 0.00 0.38 0.19 99 1013.3
20260905003603 66 86 2.0 2.0 0.00 0.38 0.19 99 1013.4
20260905002403 66 86 2.0 2.0 0.00 0.38 0.19 99 1013.1
20260905001203 66 86 2.0 2.0 0.00 0.38 0.19 99 1013.2
20260905000003 66 86 2.0 2.0 0.02 0.38 0.19 99 1013.1
20260904234802 66 55 3.0 3.0 0.03 0.38 0.19 99 1012.9
20260904233603 66 58 2.0 2.0 0.03 0.38 0.19 99 1012.7
20260904232403 66 64 3.0 5.0 0.03 0.38 0.19 99 1012.6
20260904231203 66 91 2.0 6.0 0.03 0.38 0.19 99 1012.7
20260904230002 67 335 0.0 0.0 0.01 0.36 0.17 99 1012.5
20260904224803 66 335 0.0 0.0 0.00 0.35 0.16 99 1012.6
20260904223602 67 335 0.0 0.0 0.00 0.35 0.16 99 1012.4
20260904222402 67 335 0.0 0.0 0.00 0.35 0.16 99 1012.4
20260904221204 66 334 0.0 0.0 0.01 0.35 0.16 99 1012.3
20260904220004 66 334 0.0 0.0 0.01 0.35 0.16 99 1012.5
20260904214803 66 334 0.0 0.0 0.01 0.35 0.16 99 1012.1
20260904213603 66 334 0.0 0.0 0.01 0.35 0.16 99 1012.1
20260904212402 66 332 0.0 2.0 0.01 0.35 0.16 99 1012.0
20260904211205 67 328 1.0 1.0 0.00 0.34 0.15 99 1012.0
20260904210003 67 302 0.0 0.0 0.00 0.34 0.15 99 1012.0
20260904204802 67 296 0.0 0.0 0.00 0.34 0.15 99 1011.8
20260904203604 66 279 0.0 0.0 0.00 0.34 0.15 99 1011.8